Regional Weather Roundup
Issued by NWS State College, PA

Home | Current Version | Previous Version | Text Only | Print | Product List | Glossary Off
Versions: 1 2 3 4 5 6 7 8 9 10 11 12 13 14 15 16 17 18 19 20 21 22 23 24 25 26 27 28 29 30 31 32 33 34 35 36 37 38 39 40 41 42 43 44 45 46 47 48 49 50

755
ASUS41 KCTP 281210
RWRCTP

REGIONAL WEATHER ROUNDUP
NATIONAL WEATHER SERVICE STATE COLLEGE PA
800 AM EDT THU APR 28 2016

Note: "fair" indicates few or no clouds below 12,000 feet with no
significant weather and/or obstructions to visibility.

* = STATION THAT DOES NOT REPORT PRECIPITATION /E.G. RAIN...SNOW...ETC/
    THUNDER OR FOG.

PAZ002>004-007>009-013>016-020>023-029>032-281300-
WESTERN PENNSYLVANIA

CITY           SKY/WX    TMP DP  RH WIND       PRES   REMARKS
ERIE           CLOUDY    44  30  57 NE9       29.98F
MEADVILLE      MOSUNNY   44  24  45 E9        29.93S
FRANKLIN*        N/A     45  16  31 NE10      29.96
NEW CASTLE     LGT RAIN  50  31  48 E9        29.91S
BEAVER COUNTY  CLOUDY    50  32  50 NE3       29.89S
BUTLER*        CLOUDY    50  34  53 NE10      29.92S
PITTSBURGH INT LGT RAIN  52  38  58 NE6       29.87S
PITTSBURGH     CLOUDY    52  41  66 VRB5      29.86S
INDIANA*       CLOUDY    52  43  71 E12       29.95S
LATROBE        PTSUNNY   54  50  87 CALM      29.88F FOG
WASHINGTON CO* CLOUDY    52  39  62 NE5       29.87R
$$

PAZ004>006-010>012-017>019-024>028-033>037-041-042-045-046-049>053-281300-
CENTRAL PENNSYLVANIA

CITY           SKY/WX    TMP DP  RH WIND       PRES   REMARKS
BRADFORD       MOSUNNY   39  18  42 E9        29.98S
DUBOIS         CLOUDY    44  24  45 E12       29.96R
CLEARFIELD     CLOUDY    45  23  42 E8        30.00R
JOHNSTOWN      LGT RAIN  47  43  86 E6        29.92S FOG
ALTOONA        CLOUDY    47  43  86 NE7       29.98R
STATE COLLEGE  SUNNY     46  27  46 NE12      30.02R
WILLIAMSPORT   MOSUNNY   47  20  34 N3        30.04R
SELINSGROVE    MOSUNNY   49  29  46 NE7       30.04R
FT INDIANTOWN  CLOUDY    49  30  47 NE6       30.01R
CAPITAL CITY   CLOUDY    51  40  65 E8        30.02R
HARRISBURG     CLOUDY    51  37  58 E8        30.01R
YORK           CLOUDY    52  48  86 NE6       30.01R FOG
$$

PAZ038>040-043-044-047-048-054-055-060>062-067>071-281300-
EASTERN PENNSYLVANIA

CITY           SKY/WX    TMP DP  RH WIND       PRES   REMARKS
SCRANTON       CLOUDY    44  23  43 NE6       30.05R
MOUNT POCONO   MOSUNNY   41  16  36 NE9       30.01R
ALLENTOWN      MOSUNNY   49  31  49 NE6       30.03R
QUAKERTOWN*    CLOUDY    46  30  53 CALM      30.03S
READING        CLOUDY    50  34  54 NE7       30.01R
LANCASTER      PTSUNNY   49  43  80 NE3       30.02R
COATESVILLE    CLOUDY    48  34  57 NE3G15    30.02R
POTTSTOWN      CLOUDY    47  37  68 NE5       30.04R
BLUE BELL      PTSUNNY   46  34  61 NE3       30.01R
DOYLESTOWN     PTSUNNY   46  31  55 NE6       30.01F
WILLOW GROVE   NOT AVBL
NORTH PHILA    PTSUNNY   51  39  63 NE9       30.04R
PHILADELPHIA   CLOUDY    54  36  50 NE9G20    30.02R
$$




USA.gov is the U.S. government's official web portal to all federal, state and local government web resources and services.